Lamoni, IA

8:12 PM CDT on July 20, 2017 (GMT -0500)
Lamoni Municipal

Weather History for KLWD - October, 2010

Change the Weather History Date:

Friday, October 1, 2010

  Actual Average Record
Temperature  
Mean Temperature 62 °F 59 °F  
Max Temperature 75 °F 70 °F 89 °F (1976)
Min Temperature 49 °F 48 °F 31 °F (1985)
Degree Days  
Heating Degree Days 3 8  
Month to date heating degree days 3 8  
Since 1 July heating degree days 61 108  
Cooling Degree Days 0 1  
Month to date cooling degree days 0 1  
Year to date cooling degree days 1174 934  
Growing Degree Days 12 (Base 50)    
Moisture  
Dew Point 46 °F    
Average Humidity 58    
Maximum Humidity 80    
Minimum Humidity 35    
Precipitation  
Precipitation 0.00 in 0.08 in 0.74 in (2014)
Month to date precipitation 0.00 0.08  
Year to date precipitation 48.06  
Sea Level Pressure  
Sea Level Pressure 30.12 in    
Wind  
Wind Speed 7 mph (WSW)    
Max Wind Speed 21 mph    
Max Gust Speed 26 mph    
Visibility 10 miles    
Events      
T = Trace of Precipitation, MM = Missing Value Source: NWS Daily Summary

Daily Weather History Graph

Daily Weather History Graph

Search for Another Location

Airport or City:

Trip Planner

Search our weather history database for the weather conditions in past years. The results will help you decide how hot, cold, wet, or windy it might be!

Date:

Astronomy

Oct. 01, 2010 Rise Set
Actual Time 7:12 AM CDT 6:57 PM CDT
Civil Twilight 6:44 AM CDT 7:24 PM CDT
Nautical Twilight 6:13 AM CDT 7:56 PM CDT
Astronomical Twilight 5:41 AM CDT 8:28 PM CDT
Moon No Moon Rise 3:05 PM CDT (10/1)
Length of Visible Light 12h 40m
Length of Day
11h 45m
Last Quarter, 44% of the Moon is Illuminated
Oct 1
Last Quarter
Oct 7
New
Oct 14
First Quarter
Oct 22
Full
Oct 30
Last Quarter

Hourly Weather History & Observations

Time (CDT) Temp. Dew Point Humidity Pressure Visibility Wind Dir Wind Speed Gust Speed Precip Events Conditions
12:53 AM 54.0 °F 45.0 °F 72% 30.14 in 10.0 mi NW 4.6 mph - N/A   Clear
1:53 AM 54.0 °F 45.0 °F 72% 30.14 in 10.0 mi Calm Calm - N/A   Clear
2:53 AM 51.1 °F 44.1 °F 77% 30.15 in 10.0 mi NW 3.5 mph - N/A   Clear
3:53 AM 50.0 °F 44.1 °F 80% 30.15 in 10.0 mi West 3.5 mph - N/A   Clear
4:53 AM 52.0 °F 43.0 °F 71% 30.16 in 10.0 mi West 4.6 mph - N/A   Clear
5:53 AM 55.0 °F 42.1 °F 62% 30.16 in 9.0 mi West 3.5 mph - N/A   Clear
6:53 AM 54.0 °F 42.1 °F 64% 30.18 in 10.0 mi Calm Calm - N/A   Clear
7:53 AM 54.0 °F 43.0 °F 66% 30.19 in 10.0 mi SSE 5.8 mph - N/A   Clear
8:53 AM 59.0 °F 46.0 °F 62% 30.19 in 10.0 mi South 5.8 mph - N/A   Clear
9:53 AM 64.0 °F 51.1 °F 63% 30.19 in 10.0 mi SSW 4.6 mph - N/A   Clear
10:53 AM 68.0 °F 48.9 °F 50% 30.18 in 10.0 mi SSW 10.4 mph - N/A   Clear
11:53 AM 70.0 °F 48.9 °F 47% 30.17 in 10.0 mi SW 9.2 mph - N/A   Clear
12:53 PM 72.0 °F 46.0 °F 40% 30.15 in 10.0 mi WSW 11.5 mph - N/A   Clear
1:53 PM 73.9 °F 48.0 °F 40% 30.12 in 10.0 mi WSW 10.4 mph 18.4 mph N/A   Clear
2:53 PM 73.9 °F 45.0 °F 35% 30.10 in 10.0 mi WSW 10.4 mph - N/A   Clear
3:53 PM 73.9 °F 44.1 °F 34% 30.08 in 10.0 mi WSW 10.4 mph - N/A   Clear
4:53 PM 73.9 °F 45.0 °F 35% 30.07 in 10.0 mi West 11.5 mph 16.1 mph N/A   Clear
5:53 PM 73.0 °F 46.0 °F 38% 30.06 in 10.0 mi West 4.6 mph - N/A   Clear
6:53 PM 70.0 °F 46.0 °F 42% 30.06 in 10.0 mi SW 4.6 mph - N/A   Clear
7:53 PM 64.9 °F 46.9 °F 52% 30.06 in 10.0 mi SW 5.8 mph - N/A   Clear
8:53 PM 63.0 °F 46.9 °F 56% 30.06 in 10.0 mi SW 6.9 mph - N/A   Clear
9:53 PM 61.0 °F 46.9 °F 60% 30.04 in 10.0 mi SW 6.9 mph - N/A   Partly Cloudy
10:53 PM 63.0 °F 46.9 °F 56% 30.03 in 10.0 mi SW 6.9 mph - N/A   Overcast
11:53 PM 61.0 °F 48.0 °F 62% 30.06 in 10.0 mi North 16.1 mph 23.0 mph N/A   Mostly Cloudy